Regional Weather Roundup
Issued by NWS Goodland, KS

Home | Current Version | Previous Version | Graphics & Text | Print | Product List | Glossary On
Versions: 1 2 3 4 5 6 7 8 9 10 11 12 13 14 15 16 17 18 19 20 21 22 23 24 25 26 27 28 29 30 31 32 33 34 35 36 37 38 39 40 41 42 43 44 45 46 47 48 49 50
000
ASUS43 KGLD 200808
RWRGLD

GOODLAND FORECAST AREA HOURLY WEATHER ROUNDUP
NATIONAL WEATHER SERVICE GOODLAND KS
100 AM MST MON FEB 20 2017

...OFFICIAL OBSERVATIONS...

CITY           SKY/WX    TMP DP  RH WIND       PRES   REMARKS
GOODLAND KS    CLOUDY    47  33  58 SW13      29.65F
HILL CITY KS   CLOUDY    53  51  93 CALM      29.68F
IMPERIAL NEB   PTCLDY    48  31  51 W5        29.64S
MCCOOK NEB     MOCLDY    50  45  83 SE7       29.66F
AKRON CO       CLOUDY    45  31  58 N35G48    29.73R
BURLINGTON CO  PTCLDY    42  31  64 W10       29.69R
LIMON CO       CLEAR     39  34  82 W10       29.74R
$$

...UNOFFICIAL OBSERVATIONS...

CITY           SKY/WX    TMP DP  RH WIND       PRES   REMARKS
LENORA KS        N/A     53  32  45 S9          N/A
NORTON KS      CLEAR     54  46  76 S6        29.67F
SHARON SPRINGS   N/A     43  34  71 S10         N/A
TRIBUNE KS     CLOUDY    46  34  61 S8        29.72S
TRENTON NEB      N/A     45  32  60 S5          N/A
KIT CARSON CO    N/A     37  30  75 MISG        N/A
YUMA CO        FAIR      46  32  57 NW29G38   29.70S
$$



USA.gov is the U.S. government's official web portal to all federal, state and local government web resources and services.